Station FTPC1 - 9414290 - San Francisco, CA Image indicating link to RSS feed of recent meteorological observations for station FTPC1


Conditions at FTPC1 as of
(4:30 pm PDT)
2330 GMT on 05/19/2024:
     

Click on the graph icon in the table below to see a time series plot of the last five days of that observation.

5-day plot - Wind Direction Wind Direction (WDIR): SW ( 220 deg true )
5-day plot - Wind Speed Wind Speed (WSPD): 11.1 kts
5-day plot - Wind Gust Wind Gust (GST): 19.0 kts
5-day plot - Atmospheric Pressure Atmospheric Pressure (PRES):29.99 in
5-day plot - Air Temperature Air Temperature (ATMP): 57.2 °F
5-day plot - Wind Speed at 10 Meters Wind Speed at 10 meters (WSPD10M): 11.7 kts
5-day plot - Wind Speed at 20 Meters Wind Speed at 20 meters (WSPD20M): 11.7 kts
5-day plot -  Wind Speed, Wind Gust and Atmospheric Pressure Combined plot of Wind Speed, Gust, and Air Pressure
NOS Water Level Observation Network Water Level
Previous observations
TIME
(PDT)
5-day plot - Wind Direction
WDIR
 
5-day plot - Wind Speed
WSPD
kts
5-day plot - Wind Gust
GST
kts
5-day plot - Wave Height
WVHT
ft
5-day plot - Dominant Wave Period
DPD
sec
5-day plot - Average Wave Period
APD
sec
5-day plot - Mean Wave Direction
MWD
 
5-day plot - Atmospheric Pressure
PRES
in
5-day plot - Pressure Tendency
PTDY
in
5-day plot - Air Temperature
ATMP
°F
5-day plot - Water Temperature
WTMP
°F
5-day plot - Dew Point
DEWP
°F
5-day plot - Salinity
SAL
psu
5-day plot - Visibility
VIS
nmi
5-day plot - Tide (above MLLW)
TIDE
ft
2024-05-19 04:24 pm SW 9.9 21.0----30.00- 57.2-----
2024-05-19 04:18 pm SW 12.0 21.0----29.99- 57.4-----
2024-05-19 04:12 pm SW 13.0 20.0----30.00- 57.2-----
2024-05-19 04:06 pm SW 15.0 24.1----29.99- 57.0-----
2024-05-19 04:00 pm SW 15.0 22.0------------
2024-05-19 03:54 pm SW 15.0 22.0------------
2024-05-19 03:48 pm SW 15.9 24.1----30.00-------
2024-05-19 03:42 pm SW 15.9 21.0----30.00-------
2024-05-19 03:36 pmWSW 13.0 18.1----30.00-------
2024-05-19 03:30 pm SW 12.0 17.1----30.01-------
2024-05-19 03:24 pmWSW 13.0 18.1----30.01-------
2024-05-19 03:18 pm-------30.01- 57.0-----
2024-05-19 03:12 pm-------30.01- 57.0-----
2024-05-19 03:06 pm-------30.02- 57.4-----
2024-05-19 03:00 pmWSW 13.0 18.1----30.02-0.04 57.0-----
2024-05-19 02:54 pmWSW 12.0 20.0----30.02- 56.8-----
2024-05-19 02:48 pmWSW 11.1 20.0----30.02- 57.9-----
2024-05-19 02:42 pm W 13.0 19.0----30.02- 57.4-----
2024-05-19 02:36 pmWSW 12.0 19.0----30.03- 57.4-----
2024-05-19 02:30 pmWSW 13.0 20.0----30.03- 57.2-----
2024-05-19 02:24 pmWSW 13.0 20.0----30.03- 57.0-----
2024-05-19 02:18 pmWSW 11.1 19.0----30.03- 57.4-----
2024-05-19 02:12 pm SW 12.0 21.0----30.03- 57.2-----
2024-05-19 02:06 pmWSW 12.0 20.0----30.03- 57.0-----
2024-05-19 02:00 pm SW 14.0 18.1----30.03-0.03 56.8-----
2024-05-19 01:54 pmWSW 11.1 18.1----30.03- 57.2-----
2024-05-19 01:48 pm SW 9.9 15.9----30.03- 57.4-----
2024-05-19 01:42 pm SW 8.9 13.0----30.03- 57.2-----
2024-05-19 01:36 pm SW 9.9 15.9----30.04- 56.8-----
2024-05-19 01:30 pmWSW 8.9 18.1----30.04- 56.8-----
2024-05-19 01:24 pmSSW 6.0 15.9----30.04- 57.6-----
2024-05-19 01:18 pm SW 8.0 14.0----30.04- 57.0-----
2024-05-19 01:12 pm SW 7.0 15.9----30.04- 57.0-----
2024-05-19 01:06 pm SW 8.0 15.0----30.04- 56.8-----
2024-05-19 01:00 pm SW 11.1 15.9----30.04-0.02------
2024-05-19 12:54 pmWSW 7.0 11.1----30.05-------
2024-05-19 12:48 pm W 6.0 13.0----30.05-------
2024-05-19 12:42 pmWSW 9.9 15.9----30.05-------
2024-05-19 12:36 pmWSW 8.9 15.0----30.05-------
2024-05-19 12:30 pmWSW 8.0 15.0----30.06- 55.2-----
2024-05-19 12:24 pmWSW 9.9 17.1----30.06- 55.0-----
2024-05-19 12:18 pmWSW 8.9 15.9----30.06- 54.9-----
2024-05-19 12:12 pm W 8.0 14.0----30.06- 55.0-----
2024-05-19 12:06 pm SW 8.0 13.0----30.06- 55.4-----
2024-05-19 12:00 pm SW 7.0 15.9----30.06+0.00------
2024-05-19 11:54 amWSW 7.0 13.0----30.06-------
2024-05-19 11:48 am SW 6.0 12.0----30.06- 55.4-----
2024-05-19 11:42 amWSW 6.0 13.0----30.06- 55.2-----
2024-05-19 11:36 amSSW 8.9 14.0----30.06- 55.0-----
2024-05-19 11:30 amWSW 9.9 15.9----30.06- 55.0-----
2024-05-19 11:24 amWSW 6.0 14.0----30.06- 55.0-----
2024-05-19 11:18 am SW 8.9 15.0----30.06- 54.3-----
2024-05-19 11:12 am SW 9.9 15.0----30.06- 54.3-----
2024-05-19 11:06 am SW 7.0 18.1----30.06- 54.7-----
2024-05-19 11:00 amSSW 8.9 15.9----30.06+0.02 54.7-----
2024-05-19 10:54 am SW 8.0 13.0----30.06- 54.5-----
2024-05-19 10:48 am SW 11.1 18.1----30.06- 54.3-----
2024-05-19 10:42 amSSW 12.0 15.9----30.06- 54.3-----
2024-05-19 10:36 amWSW 14.0 18.1----30.06- 54.5-----
2024-05-19 10:30 am SW 8.0 14.0----30.06- 54.9-----
2024-05-19 10:24 amWSW 8.0 12.0----30.06- 54.7-----
2024-05-19 10:18 amSSW 6.0 12.0----30.06-------
2024-05-19 10:12 am SW 7.0 11.1----30.06-------
2024-05-19 10:06 amWSW 8.0 12.0----30.06-------
2024-05-19 10:00 amSSW 8.9 14.0----30.06+0.03------
2024-05-19 09:54 am SW 9.9 15.0----30.06-------
2024-05-19 09:48 amWSW 8.0 14.0----30.06- 54.0-----
2024-05-19 09:42 am SW 7.0 14.0----30.06- 54.5-----
2024-05-19 09:36 amSSW 8.0 12.0----30.06- 54.1-----
2024-05-19 09:30 amSSW 8.0 15.0----30.06- 54.3-----
2024-05-19 09:24 am SW 6.0 14.0----30.06- 54.0-----
2024-05-19 09:18 am SW 11.1 14.0----30.06- 53.8-----
2024-05-19 09:12 amWSW 8.0 11.1----30.05- 54.1-----
2024-05-19 09:06 amSSW 8.9 15.0----30.06- 53.6-----
2024-05-19 09:00 amSSW 6.0 13.0----30.05+0.03 53.6-----
2024-05-19 08:54 am SW 9.9 13.0----30.05- 53.2-----
2024-05-19 08:48 am SW 5.1 11.1----30.05- 54.1-----
2024-05-19 08:42 am SW 8.9 14.0----30.05- 52.9-----
2024-05-19 08:36 am SW 8.0 12.0----30.05- 53.2-----
2024-05-19 08:30 am SW 7.0 14.0----30.05- 52.9-----
2024-05-19 08:24 amWSW 8.9 14.0----30.05- 52.7-----
2024-05-19 08:18 am-------30.05- 52.9-----
2024-05-19 08:12 am-------30.04- 52.7-----
2024-05-19 08:06 am-------30.04- 52.7-----
2024-05-19 08:00 am-------30.04+0.03 53.1-----
2024-05-19 07:54 am-------30.04- 52.7-----
2024-05-19 07:48 am-------30.04- 52.7-----
2024-05-19 07:42 am-------30.04- 52.7-----
2024-05-19 07:36 am-------30.04- 52.7-----
2024-05-19 07:30 am S 8.9 14.0----30.04- 52.3-----
2024-05-19 07:24 amSSW 9.9 15.0----30.04- 52.3-----
2024-05-19 07:18 amSSW 9.9 15.0----30.04- 52.3-----
2024-05-19 07:12 amSSW 4.1 12.0----30.03- 52.3-----
2024-05-19 07:06 amSSW 7.0 11.1----30.03- 52.0-----
2024-05-19 07:00 amSSW 7.0 12.0----30.03+0.02------
2024-05-19 06:54 amSSW 5.1 9.9----30.03-------
2024-05-19 06:48 am-------30.03- 51.4-----
2024-05-19 06:42 am-------30.03- 51.3-----
2024-05-19 06:36 am-------30.03- 51.3-----
2024-05-19 06:30 amSSW 5.1 7.0----30.03-------
2024-05-19 06:24 am S 4.1 7.0----30.02-------
2024-05-19 06:18 am SW 5.1 8.0----30.02-------
2024-05-19 06:12 am SW 7.0 9.9----30.02-------
2024-05-19 06:06 am SW 5.1 9.9----30.02-------
2024-05-19 06:00 am SW 6.0 9.9----30.02+0.01------
2024-05-19 05:54 am SW 5.1 8.9----30.02-------
2024-05-19 05:48 am SW 7.0 11.1----30.02- 51.3-----
2024-05-19 05:42 am SW 7.0 9.9----30.02- 51.3-----
2024-05-19 05:36 am SW 6.0 8.9----30.01- 51.3-----
2024-05-19 05:30 am-------30.01- 51.4-----
2024-05-19 05:24 am-------30.01- 51.4-----
2024-05-19 05:18 am SW 4.1 9.9----30.01-------
2024-05-19 05:12 am SW 4.1 11.1----30.01-------
2024-05-19 05:06 am SW 4.1 6.0----30.01-------
2024-05-19 05:00 amWSW 2.9 9.9----30.01+0.00 51.6-----
2024-05-19 04:54 amSSW 6.0 14.0----30.01- 51.6-----
2024-05-19 04:48 am SW 8.0 12.0----30.01- 51.6-----
2024-05-19 04:42 amSSW 4.1 9.9----30.01- 51.8-----
2024-05-19 04:36 am SW 5.1 12.0----30.01- 51.8-----
2024-05-19 04:30 am SW 8.0 12.0----30.00- 51.8-----
2024-05-19 04:24 amSSW 7.0 14.0----30.00- 52.0-----
2024-05-19 04:18 am SW 9.9 14.0----30.01- 52.0-----
2024-05-19 04:12 amWSW 8.0 13.0----30.01- 52.2-----
2024-05-19 04:06 amWSW 8.9 15.9----30.01- 52.0-----
2024-05-19 04:00 amWSW 8.9 13.0----30.01+0.00------
2024-05-19 03:54 am SW 7.0 12.0----30.01-------
2024-05-19 03:48 am SW 8.0 13.0----30.01-------
2024-05-19 03:42 amWSW 8.0 14.0----30.01-------
2024-05-19 03:36 am SW 6.0 13.0----30.01-------
2024-05-19 03:30 am SW 8.9 15.0----30.01- 52.3-----
2024-05-19 03:24 am SW 8.9 15.0----30.01- 52.3-----
2024-05-19 03:18 am SW 8.0 14.0----30.01-------
2024-05-19 03:12 am SW 8.0 13.0----30.01-------
2024-05-19 03:06 am SW 8.9 15.0----30.01-------
2024-05-19 03:00 am-------30.01-0.01------
2024-05-19 02:54 am-------30.01-------
2024-05-19 02:48 am SW 8.0 12.0----30.01- 52.5-----
2024-05-19 02:42 amSSW 5.1 12.0----30.01- 52.7-----
2024-05-19 02:36 am SW 8.0 15.9----30.01- 52.7-----
2024-05-19 02:30 am SW 7.0 15.0----30.01- 52.7-----
2024-05-19 02:24 amSSW 7.0 15.0----30.01- 52.7-----
2024-05-19 02:18 am SW 8.0 14.0----30.01- 52.7-----
2024-05-19 02:12 am SW 8.9 14.0----30.01- 52.7-----
2024-05-19 02:06 amWSW 9.9 14.0----30.01- 52.9-----
2024-05-19 02:00 amSSW 7.0 9.9----30.01+0.00 52.9-----
2024-05-19 01:54 am SW 8.9 15.0----30.01- 52.9-----
2024-05-19 01:48 am SW 8.9 14.0----30.01- 52.9-----
2024-05-19 01:42 am SW 8.0 12.0----30.01- 52.9-----
2024-05-19 01:36 am SW 8.9 18.1----30.01- 52.9-----
2024-05-19 01:30 am SW 8.0 14.0----30.01- 52.9-----
2024-05-19 01:24 am SW 11.1 18.1----30.01- 52.9-----
2024-05-19 01:18 am SW 7.0 11.1----30.01- 52.9-----
2024-05-19 01:12 amWSW 7.0 15.0----30.01- 52.9-----
2024-05-19 01:06 am SW 8.0 14.0----30.01- 52.9-----
2024-05-19 01:00 am SW 8.9 15.0----30.01+0.00 52.9-----
2024-05-19 12:54 amSSW 8.0 15.9----30.02- 52.7-----
2024-05-19 12:48 am SW 7.0 14.0----30.02- 52.7-----
2024-05-19 12:42 am SW 7.0 15.0----30.02- 52.7-----
2024-05-19 12:36 amSSW 7.0 13.0----30.01- 52.7-----
2024-05-19 12:30 am SW 8.9 14.0----30.02- 52.7-----
2024-05-19 12:24 am SW 9.9 13.0----30.02- 52.7-----
2024-05-19 12:18 amWSW 9.9 15.0----30.02- 52.5-----
2024-05-19 12:12 am SW 9.9 15.9----30.02- 52.5-----
2024-05-19 12:06 am SW 7.0 12.0----30.02- 52.5-----
2024-05-19 12:00 am SW 8.9 15.9----30.02+0.03 52.3-----
2024-05-18 11:54 pm SW 8.0 17.1----30.02- 52.5-----
2024-05-18 11:48 pm SW 8.9 17.1----30.02- 52.7-----
2024-05-18 11:42 pm SW 6.0 14.0----30.02- 52.7-----
2024-05-18 11:36 pm SW 7.0 11.1----30.02- 52.7-----
2024-05-18 11:30 pm SW 7.0 13.0----30.02- 52.7-----
2024-05-18 11:24 pm SW 8.0 14.0----30.02- 52.7-----
2024-05-18 11:18 pm SW 8.9 12.0----30.02- 52.7-----
2024-05-18 11:12 pm SW 5.1 11.1----30.01- 52.9-----
2024-05-18 11:06 pm SW 8.9 14.0----30.01- 52.9-----
2024-05-18 11:00 pm SW 7.0 14.0----30.01+0.04 52.7-----
2024-05-18 10:54 pmWSW 8.0 13.0----30.01- 52.7-----
2024-05-18 10:48 pm SW 8.9 15.0----30.02- 52.7-----
2024-05-18 10:42 pm SW 7.0 15.0----30.02- 52.7-----
2024-05-18 10:36 pm SW 4.1 20.0----30.02- 52.7-----
2024-05-18 10:30 pmSSW 7.0 11.1----30.01- 52.5-----
2024-05-18 10:24 pmSSW 7.0 13.0----30.01- 52.5-----
2024-05-18 10:18 pm SW 4.1 11.1----30.01- 52.7-----
2024-05-18 10:12 pmSSW 6.0 11.1----30.01- 52.7-----
2024-05-18 10:06 pm SW 5.1 11.1----30.01- 52.7-----
2024-05-18 10:00 pm SW 6.0 12.0----30.01+0.05 52.7-----
2024-05-18 09:54 pm SW 6.0 15.0----30.01- 52.7-----
2024-05-18 09:48 pm SW 2.9 9.9----30.00- 52.9-----
2024-05-18 09:42 pm SW 7.0 12.0----30.00- 52.9-----
2024-05-18 09:36 pm SW 7.0 13.0----30.00- 52.9-----
2024-05-18 09:30 pmWSW 7.0 12.0----30.00- 52.9-----
2024-05-18 09:24 pmWSW 7.0 13.0----29.99- 52.7-----
2024-05-18 09:18 pmWSW 8.9 15.9----29.99- 52.7-----
2024-05-18 09:12 pmWSW 7.0 14.0----29.99- 52.7-----
2024-05-18 09:06 pm SW 8.0 14.0----29.99- 52.7-----
2024-05-18 09:00 pm SW 9.9 15.0----29.98+0.02 52.5-----
2024-05-18 08:54 pmWSW 7.0 13.0----29.98- 52.5-----
2024-05-18 08:48 pm SW 8.9 17.1----29.98- 52.3-----
2024-05-18 08:42 pm SW 7.0 12.0----29.98- 52.5-----
2024-05-18 08:36 pmWSW 8.0 15.9----29.98- 52.5-----
2024-05-18 08:30 pm SW 8.9 17.1----29.98- 52.5-----
2024-05-18 08:24 pm SW 9.9 15.9----29.98- 52.7-----
2024-05-18 08:18 pm SW 8.0 17.1----29.98- 52.7-----
2024-05-18 08:12 pm SW 8.0 18.1----29.97- 52.5-----
2024-05-18 08:06 pm SW 8.0 15.9----29.98- 52.5-----
2024-05-18 08:00 pm SW 8.0 13.0----29.97+0.01 52.7-----
2024-05-18 07:54 pmSSW 8.0 15.0----29.97- 52.7-----
2024-05-18 07:48 pm SW 8.0 18.1----29.97- 52.7-----
2024-05-18 07:42 pm SW 8.9 14.0----29.97- 52.9-----
2024-05-18 07:36 pm SW 8.9 18.1----29.97- 52.7-----
2024-05-18 07:30 pm SW 11.1 17.1----29.97- 52.9-----
2024-05-18 07:24 pm SW 11.1 18.1----29.97- 52.9-----
2024-05-18 07:18 pm SW 12.0 20.0----29.96- 52.9-----
2024-05-18 07:12 pm SW 12.0 19.0----29.96- 53.1-----
2024-05-18 07:06 pmWSW 9.9 18.1----29.96- 53.1-----
2024-05-18 07:00 pm SW 7.0 22.0----29.96-0.01 53.2-----
2024-05-18 06:54 pm SW 8.9 20.0----29.96- 53.2-----
2024-05-18 06:48 pm SW 9.9 20.0----29.96- 53.4-----
2024-05-18 06:42 pm SW 5.1 18.1----29.96- 53.4-----
2024-05-18 06:36 pm SW 9.9 17.1----29.96- 53.4-----
2024-05-18 06:30 pm SW 8.9 14.0----29.96- 53.6-----
2024-05-18 06:24 pmWSW 8.9 19.0----29.96- 53.6-----
2024-05-18 06:18 pm SW 7.0 18.1----29.96- 54.0-----
2024-05-18 06:12 pm SW 7.0 17.1----29.96- 54.1-----
2024-05-18 06:06 pm SW 11.1 15.0----29.96- 54.5-----
2024-05-18 06:00 pmWSW 7.0 13.0----29.96-0.02 54.5-----
2024-05-18 05:54 pmWSW 8.0 14.0----29.96- 54.9-----
2024-05-18 05:48 pm W 4.1 12.0----29.96- 54.9-----
2024-05-18 05:42 pmWSW 7.0 18.1----29.96- 54.9-----
2024-05-18 05:36 pmWSW 6.0 13.0----29.96- 55.0-----
2024-05-18 05:30 pm W 2.9 11.1----29.96- 55.0-----
2024-05-18 05:24 pmWSW 7.0 12.0----29.96- 54.9-----
2024-05-18 05:18 pmWSW 5.1 15.0----29.96- 54.9-----
2024-05-18 05:12 pm SW 6.0 15.9----29.96- 55.0-----
2024-05-18 05:06 pm SW 8.9 13.0----29.96- 54.9-----
2024-05-18 05:00 pmWSW 6.0 17.1----29.96-0.03 54.9-----
2024-05-18 04:54 pmWSW 6.0 13.0----29.96- 54.9-----